Погода в Кочневке

Россия / Новосибирская область     55°28′56″N   76°07′21″E
темп.,
°C
ветер,
м/с
пор.,
м/с
влажн.,
%
обл.,
%
осадки,
мм/ч
давл.,
гПа
погр.,
м
15 мая, сб
сб1501:00+13зюз464613 0.0 102482
04:00+12юз4115494 0.0 1022150
07:00+13юз41260100 0.0 1022229
10:00+19юз474563 0.0 1021355
13:00+26з81031100 0.1 10191255
16:00+29зсз79265 0.0 10173154
19:00+28з692917 0.0 10152486
22:00+16св41076100 0.0 1017231
16 мая, вс
вс1601:00+17юз487099 0.0 1016119
04:00+16зюз4107122 0.1 1015171
07:00+15зюз376952 0.1 1014149
10:00+23зюз7114719 0.1 1013506
13:00+26зсз71039100 0.1 10121518
16:00+26сз81139100 0.0 10122409
19:00+24ссз7114735 0.0 10131599
22:00+19с510665 0.0 1015377
17 мая, пн
пн1701:00+15ссв488410 0.0 1017191
04:00+13всв23935 0.0 101842
07:00+13юв11886 0.0 101943
10:00+19юз33641 0.0 1019593
13:00+25зюз57425 0.0 10171293
16:00+29з710315 0.0 10142556
19:00+29зсз79285 0.0 10133074
22:00+22зюз411421 0.0 1011167
18 мая, вт
вт1801:00+22зсз6164118 0.0 1011470
04:00+16з226816 0.1 101119
07:00+16зсз3870100 0.1 1011198
10:00+21сз7105486 0.0 1011881
13:00+23сз684275 0.0 10111502
16:00+26сз693381 0.0 10102886
19:00+16ссз61084100 2.8 1010238
22:00+18св476829 0.1 1008155
19 мая, ср
ср1901:00+15зсз2484100 1.1 100980
04:00+13сз3790100 0.1 1008155
07:00+13ссв479296 0.1 1008522
10:00+12ссв71092100 1.8 1010612
13:00+13ссв81067100 2.4 1013982
16:00+15с8105684 0.2 10141697
19:00+16с7103998 0.2 10152457
22:00+12с511515 0.0 1018373